Theta_e
293 287 285 285 288 289 291 290 291 292 290 289 288 287 286 285 286 287 289 293 292 290 287 289 287 286 289 291 292 293 291 292 290 291 291 291 291 290 290 290 290 290 290 292 292 292 292 292 293 293 293 293 294 294 295 295 296 296 297 297 297 298 300 301 303 304 304 306 306 308 308 305 306 307 308 309 309 310 308 309 309 311 311 311 311 310
294 287 286 289 291 291 292 292 290 289 289 288 287 284 285 284 285 288 290 290 291 290 285 284 287 289 290 291 291 292 292 290 290 290 290 290 290 290 289 289 289 290 291 291 291 291 291 292 292 292 292 293 292 292 293 294 294 295 296 296 297 298 298 298 299 301 301 301 301 304 303 303 303 306 307 307 308 308 308 307 307 307 307 307 307 305
287 286 290 292 293 292 291 291 289 288 288 287 286 285 284 286 286 289 290 290 290 291 287 283 287 288 290 289 291 290 290 290 291 290 290 289 289 289 289 289 289 289 289 289 290 290 290 291 291 292 292 292 292 292 292 293 293 294 294 295 295 296 297 297 297 298 299 299 300 301 300 301 302 302 303 304 304 305 306 305 305 306 306 307 306 305
285 286 291 293 291 290 290 290 289 289 289 286 286 284 285 286 286 283 286 287 289 289 286 286 285 287 288 290 290 290 290 289 290 290 289 290 288 288 288 288 288 288 288 287 288 288 289 289 290 290 291 291 291 291 291 291 292 293 293 293 294 295 295 296 297 297 297 298 298 298 298 299 299 297 298 299 300 302 304 304 303 304 304 305 306 305
290 291 293 292 290 290 289 290 288 287 286 285 287 286 286 286 285 286 285 287 287 287 287 285 284 284 287 287 287 289 290 289 289 289 289 289 289 289 289 288 288 287 287 287 287 287 288 288 288 288 289 290 290 290 290 290 291 292 291 292 293 293 294 294 295 296 297 298 298 298 299 298 298 298 297 297 297 297 297 299 300 299 298 300 301 300
288 292 294 290 289 289 289 288 288 288 285 284 285 289 289 288 287 286 286 286 282 283 283 285 278 276 280 284 286 287 287 287 288 287 287 287 288 287 287 287 287 287 287 286 286 286 286 287 287 288 288 288 289 289 290 290 291 291 291 291 292 292 293 293 293 294 296 295 295 295 295 294 294 294 294 293 293 294 296 297 296 298 297 298 299 297
290 293 293 292 289 287 287 287 286 289 284 285 287 288 289 287 286 284 285 284 278 279 284 285 281 275 280 285 286 286 285 285 286 285 286 286 286 286 285 286 285 285 286 286 286 286 285 286 286 286 287 287 287 288 289 289 290 290 291 291 291 291 291 292 292 293 294 293 293 293 293 293 292 291 292 292 293 293 294 294 294 296 297 296 298 297
290 290 290 290 290 288 286 286 287 290 286 284 285 286 286 286 285 284 283 285 281 281 282 284 283 277 276 284 287 286 285 284 284 285 285 285 285 285 285 284 284 284 284 284 284 284 285 285 285 285 286 286 287 287 288 288 289 288 289 289 290 290 290 290 291 291 292 292 292 291 291 291 291 291 290 292 292 293 293 293 293 293 293 294 295 296
290 288 288 288 288 286 287 289 288 290 288 285 286 285 285 286 284 284 285 281 281 282 278 278 282 280 276 281 285 286 284 283 283 283 284 284 284 284 284 284 284 284 283 283 283 283 284 284 284 285 285 286 287 287 287 287 287 288 288 288 288 288 289 289 290 290 290 291 290 290 290 290 290 290 290 291 292 291 292 291 292 292 292 292 293 293
291 292 289 290 287 288 288 285 288 291 288 288 286 286 285 284 284 283 281 283 280 279 275 280 282 277 278 280 282 285 285 283 283 283 284 284 283 283 283 283 283 283 283 283 283 283 284 284 284 284 284 285 286 286 287 286 287 287 287 287 287 287 288 288 288 289 289 289 290 289 289 288 288 289 289 290 289 290 290 290 290 290 290 290 291 291
290 292 292 290 289 289 286 287 287 290 289 287 286 284 283 281 280 280 279 277 277 273 278 282 282 283 277 281 283 283 284 284 284 283 283 283 282 282 282 282 282 282 282 282 282 282 283 283 284 284 284 284 285 285 286 286 286 286 286 286 286 286 287 287 287 287 287 288 288 288 288 287 287 287 288 287 287 288 288 288 288 288 289 289 289 290
288 289 290 288 292 290 289 288 286 285 286 286 285 282 283 282 278 276 273 276 273 271 276 278 282 282 275 277 281 283 284 285 286 283 282 282 282 282 282 282 282 282 281 281 281 282 282 283 283 283 283 284 284 284 285 285 285 285 285 285 285 285 286 286 286 286 286 287 287 287 286 286 286 286 286 286 285 286 286 286 286 287 287 287 288 288
285 287 287 289 292 291 287 287 285 285 285 284 282 281 276 274 273 272 273 273 272 274 279 278 281 280 281 282 282 282 283 283 285 285 284 282 282 282 282 282 283 282 281 282 281 281 281 281 281 282 282 283 283 283 283 284 284 284 284 284 284 284 285 285 285 285 285 285 286 286 286 286 286 286 286 286 285 285 285 285 285 285 285 286 286 286
282 282 286 288 290 290 289 286 282 283 283 283 283 279 274 272 272 268 269 268 270 275 278 281 282 280 280 282 281 281 283 283 284 284 284 283 282 282 282 282 282 281 281 281 281 281 280 280 281 281 281 282 282 282 283 283 283 283 283 283 283 283 284 285 285 284 284 284 285 286 287 286 286 285 286 286 285 285 285 285 284 284 284 284 284 285
277 280 284 287 286 289 291 290 287 281 281 284 282 284 281 273 268 268 267 272 273 275 277 278 278 273 278 282 280 282 282 283 283 283 283 282 282 282 281 280 280 280 280 280 280 280 280 280 280 280 281 281 281 282 282 282 282 282 282 283 283 283 284 284 284 284 284 285 285 286 286 287 286 285 285 285 286 285 285 285 284 284 284 284 284 284
282 281 284 288 289 289 288 289 286 284 284 282 281 282 279 280 278 274 271 268 268 273 274 275 277 276 280 281 283 282 282 282 282 282 282 281 281 280 280 280 280 280 280 280 279 279 279 279 279 280 280 281 281 281 282 282 282 283 282 282 282 282 283 284 284 285 285 285 285 285 285 286 286 286 286 286 286 286 286 285 285 284 284 284 284 285
281 279 285 288 288 288 287 288 290 287 281 283 284 280 282 283 284 275 274 276 275 272 275 271 279 280 282 282 281 282 281 280 280 280 280 280 280 279 280 280 279 280 280 279 279 278 278 279 279 279 279 280 281 281 282 282 281 282 282 282 282 282 282 284 284 285 286 285 285 285 285 285 285 285 285 285 285 285 286 286 285 285 285 285 286 285
282 279 284 286 287 289 284 288 287 287 286 285 279 283 284 285 284 279 273 269 268 270 272 273 275 276 279 274 279 279 278 279 279 279 280 280 279 279 280 279 280 280 280 280 279 279 280 281 281 281 281 280 280 281 282 283 283 282 282 282 282 282 283 283 285 285 285 285 285 284 284 284 285 284 285 285 284 285 284 285 285 285 284 285 285 285
287 281 283 286 287 289 287 289 288 288 288 284 281 284 286 277 277 277 272 269 268 266 268 271 275 277 278 279 277 278 278 279 279 279 279 279 279 279 279 279 280 281 281 281 281 280 280 280 281 281 281 282 283 283 284 285 285 285 285 285 285 284 285 284 285 285 285 285 285 285 284 284 284 284 284 283 283 283 284 283 284 284 284 284 284 284
286 280 281 285 288 288 286 285 280 283 288 286 287 286 283 281 274 273 278 272 271 266 269 266 273 276 278 279 280 282 281 280 279 278 279 280 280 280 280 280 281 280 280 281 281 282 282 281 281 281 281 282 283 284 285 285 285 285 285 284 285 285 285 284 284 284 284 285 284 284 284 283 282 281 281 281 281 282 281 282 282 282 282 282 282 282
288 285 277 284 283 286 284 284 282 283 281 284 284 280 283 279 280 279 279 275 275 267 268 270 271 273 276 280 281 282 282 281 280 280 281 281 281 281 281 281 281 281 281 282 283 283 283 283 284 285 285 284 284 283 283 283 284 284 283 283 283 283 283 283 283 283 283 283 283 282 282 282 281 281 280 280 280 280 280 280 280 280 280 281 282 282
286 285 283 282 283 282 280 283 284 283 285 282 284 282 283 279 278 276 275 279 271 276 270 272 273 275 280 284 282 281 282 281 282 282 281 281 282 282 282 282 283 283 283 284 284 283 284 284 283 283 283 282 283 282 282 282 282 283 284 283 282 283 282 283 282 283 283 282 282 281 281 281 281 281 280 280 280 280 281 281 281 281 281 281 282 281
288 283 282 282 282 283 285 289 286 287 284 283 285 284 282 280 279 273 274 272 273 275 270 268 273 276 283 281 282 282 283 283 283 282 282 283 283 283 284 284 284 285 285 285 284 284 284 284 283 282 282 282 282 282 282 282 283 282 282 282 281 282 282 282 282 282 282 281 281 281 280 280 280 280 280 280 280 279 280 280 280 281 281 281 282 281
291 279 280 280 279 280 282 283 284 285 287 286 284 281 282 282 282 280 279 276 275 276 277 275 275 281 284 282 281 282 282 282 283 283 284 285 285 284 285 285 284 284 284 284 284 284 284 283 283 283 283 283 282 282 281 281 281 281 281 281 282 281 281 281 281 282 281 281 281 280 280 280 280 280 280 280 279 279 279 279 280 280 280 281 280 281
283 282 282 275 273 277 278 282 283 284 281 277 280 280 280 278 278 277 277 278 278 281 281 278 273 280 283 281 281 280 282 282 283 283 284 285 285 284 283 282 282 282 282 281 281 281 281 281 280 281 281 281 281 281 281 281 281 280 281 281 281 281 281 281 281 281 281 281 280 279 278 278 278 278 278 278 278 278 278 278 279 279 279 279 279 279
284 281 281 277 276 274 273 270 268 273 280 281 280 281 283 282 281 280 277 279 278 282 283 279 279 282 282 282 283 283 282 281 283 284 283 283 283 282 281 280 281 280 280 280 279 279 279 280 279 279 279 279 280 279 280 280 280 279 279 279 279 279 279 279 279 279 279 278 278 278 277 277 277 277 277 278 278 278 278 278 278 278 279 278 278 279
281 281 280 281 281 280 279 272 278 281 280 276 276 279 280 281 281 283 282 280 278 281 278 279 278 279 281 280 281 282 281 282 283 283 283 283 282 281 280 280 280 280 280 279 279 278 278 279 278 279 278 278 279 278 278 278 278 278 278 277 277 277 277 277 277 277 277 277 276 277 276 276 277 277 277 277 278 278 278 278 278 278 278 278 278 278
282 282 283 280 281 280 278 279 282 282 279 278 277 279 280 279 276 277 278 275 281 277 274 282 279 276 280 282 281 281 282 282 282 282 282 282 282 282 280 279 282 278 278 278 278 278 278 279 278 278 278 278 277 276 277 277 277 277 277 277 277 277 277 278 277 276 276 276 276 276 276 276 277 277 277 277 277 277 277 277 277 277 277 277 277 277
281 279 280 281 279 280 280 281 282 282 282 281 281 280 280 282 275 273 271 279 279 277 275 279 277 274 278 281 278 281 283 283 283 283 284 284 281 278 278 279 279 278 278 277 278 278 278 278 279 278 278 277 276 277 278 278 277 277 276 276 276 276 276 276 275 275 275 275 275 275 276 276 276 276 276 276 276 276 276 276 276 276 275 275 275 276
277 271 276 279 277 280 280 280 280 280 278 278 279 280 280 279 278 278 278 280 280 278 279 279 279 279 281 281 279 281 282 283 282 280 278 279 279 279 278 278 278 278 278 278 278 278 278 278 277 276 276 277 277 277 277 277 277 276 276 276 275 275 275 274 274 274 274 274 274 274 274 274 274 274 274 274 274 273 273 272 272 272 272 272 273 273
284 276 280 274 273 268 272 277 278 278 278 277 278 279 279 278 277 278 278 278 278 277 279 279 278 278 283 281 281 278 277 278 279 278 279 278 278 278 278 278 278 278 278 278 278 277 277 276 276 277 277 277 277 277 277 277 276 275 274 274 274 274 274 273 273 273 272 272 273 273 273 273 273 273 272 272 271 270 270 270 270 270 270 270 270 271
281 273 273 267 268 266 269 275 276 273 272 271 273 275 275 275 275 277 276 278 276 275 277 275 273 276 281 276 272 274 276 277 278 278 277 277 278 278 278 278 278 278 278 277 277 276 277 277 277 277 277 277 277 276 276 275 274 274 273 273 273 273 272 272 272 271 271 271 272 272 272 272 272 271 270 270 269 269 268 268 268 268 268 268 268 269
276 274 272 269 269 265 269 271 273 268 268 270 272 275 276 276 278 278 278 278 279 278 273 271 274 280 280 280 279 277 276 276 275 276 277 276 277 278 278 278 278 277 276 276 276 276 277 277 277 277 277 276 276 274 274 274 273 272 272 272 272 272 271 270 270 270 270 271 271 271 271 270 269 268 268 267 267 267 266 266 266 266 266 266 266 267
274 278 271 272 269 265 266 268 268 266 262 267 275 277 277 275 276 274 275 277 277 279 276 279 279 278 277 276 278 279 276 275 276 277 277 279 277 276 277 277 276 276 276 276 277 277 277 277 277 277 276 275 274 273 272 272 272 272 272 271 270 270 270 269 269 269 269 269 269 269 269 268 266 266 265 265 265 265 264 264 264 264 264 265 265 264
278 279 276 273 271 266 265 266 267 265 267 272 275 276 277 277 276 276 277 277 276 277 277 277 277 276 278 279 280 280 278 275 274 276 275 274 276 276 276 275 275 275 276 276 276 276 277 277 277 275 273 272 272 272 271 271 270 270 270 270 269 269 268 268 267 267 268 267 267 266 265 265 264 264 264 263 263 263 262 262 262 263 263 263 263 263
277 276 271 274 271 269 267 268 260 263 273 275 276 276 276 276 276 275 273 276 277 277 277 276 277 278 279 279 276 274 274 274 274 275 274 274 275 276 275 276 275 276 276 276 277 277 277 276 276 274 272 272 271 270 270 269 269 268 268 268 268 267 265 266 265 265 266 265 264 264 265 264 263 262 262 262 262 261 261 261 261 261 262 262 262 262
279 271 272 272 275 268 269 267 269 269 273 274 274 274 275 274 273 273 267 273 277 276 276 276 277 277 277 274 273 274 273 273 273 275 276 275 275 276 277 276 276 276 277 277 278 278 276 275 274 272 271 270 270 269 269 269 267 267 266 266 266 265 264 264 263 264 264 263 263 263 263 263 262 261 261 261 260 260 260 260 260 260 261 260 260 261
279 276 274 271 267 270 265 266 263 260 262 269 272 272 275 276 276 275 274 270 275 272 274 277 276 275 273 273 273 273 273 273 271 273 276 275 275 276 276 277 277 277 277 276 275 274 273 273 272 271 270 269 268 268 268 267 265 265 264 264 264 263 264 262 263 264 262 262 262 262 262 262 261 260 260 259 259 259 260 260 260 260 260 260 259 259
278 279 276 274 269 269 266 267 266 262 263 271 270 274 276 275 276 274 270 266 272 272 271 272 271 271 273 273 273 273 271 265 269 273 276 276 275 276 277 275 276 275 276 276 275 273 272 271 271 270 269 268 266 266 266 264 263 263 263 263 263 263 261 262 263 262 262 262 262 262 261 261 260 260 259 259 259 259 259 259 259 259 260 259 259 259
275 275 276 273 270 270 268 267 266 266 265 268 266 273 274 271 274 270 260 260 266 271 270 272 273 272 273 274 273 273 272 265 270 275 276 277 277 276 276 276 275 275 274 273 273 273 271 270 269 268 266 265 266 265 264 263 262 261 262 262 263 261 260 262 262 262 262 262 262 261 260 260 259 259 258 258 258 258 258 259 259 259 259 258 258 258
272 269 274 271 272 272 273 268 268 267 270 268 269 273 273 274 272 262 264 266 271 272 273 273 275 275 274 273 273 270 274 277 278 277 275 277 275 275 275 275 276 275 274 272 272 273 270 270 269 267 265 265 265 264 263 262 261 261 261 261 261 260 261 261 261 261 261 261 260 259 259 259 258 258 258 258 258 258 258 258 258 258 258 257 257 257
264 266 267 270 270 270 270 269 269 272 273 273 273 275 275 273 264 266 271 273 274 274 273 275 275 275 274 275 275 276 277 277 274 274 274 274 277 276 274 273 272 272 272 272 272 270 268 267 266 265 264 264 264 263 262 260 259 260 260 260 259 259 261 261 261 260 259 259 259 258 258 257 257 258 257 258 257 257 257 258 258 257 257 257 257 256
268 267 266 269 270 269 267 267 267 263 273 277 276 274 276 267 268 273 274 274 274 273 274 273 275 275 275 275 276 277 277 275 274 274 275 275 275 274 273 273 272 272 270 269 268 268 267 265 264 264 263 263 262 262 262 258 257 258 259 258 259 260 259 260 259 259 258 258 257 257 257 257 256 257 257 257 257 257 256 257 257 256 257 256 256 256
269 260 256 262 270 264 267 265 266 273 274 276 277 271 271 276 276 275 275 275 275 274 274 274 274 275 275 276 276 276 275 275 274 273 273 274 275 274 274 273 272 271 269 268 267 267 264 264 264 263 262 262 261 260 261 257 256 257 257 258 260 259 259 258 257 257 256 256 256 256 256 256 256 256 256 256 256 256 256 256 256 256 256 256 256 255
272 269 267 265 267 266 264 268 273 275 276 277 278 277 275 278 278 275 276 277 276 275 275 275 276 276 275 275 276 276 276 275 275 275 275 275 275 274 273 272 271 270 268 266 265 264 263 263 262 262 261 261 259 259 257 257 256 256 255 258 258 257 256 256 254 255 255 254 254 255 255 255 255 255 255 255 255 255 256 256 255 255 256 256 255 255
272 273 273 272 268 272 272 272 274 274 273 275 278 279 278 278 276 275 276 276 276 278 276 276 277 277 276 276 275 274 275 276 275 275 274 275 274 273 272 270 268 267 266 264 263 263 262 260 259 258 258 259 258 258 258 257 256 254 256 258 257 256 255 254 253 254 254 254 255 255 255 255 255 255 255 255 256 255 256 255 255 255 255 255 255 255
272 273 271 269 270 268 264 273 273 275 274 275 278 279 277 275 276 276 276 277 278 278 276 276 277 277 277 276 275 276 277 277 276 276 274 273 273 271 270 269 268 266 264 263 263 261 259 258 258 257 257 256 258 257 257 256 255 256 257 256 257 257 254 252 253 254 254 254 254 254 254 254 255 255 256 255 255 256 256 256 255 255 255 255 255 255
271 274 270 273 271 271 270 272 273 275 275 276 277 276 277 278 278 277 277 277 278 278 277 277 276 275 275 274 275 276 276 277 275 275 273 273 272 271 270 268 266 264 263 263 262 260 258 257 258 256 256 256 258 257 256 255 254 255 255 255 256 253 252 253 253 254 254 254 254 254 254 254 256 256 255 255 255 255 255 256 255 255 255 255 256 255
274 274 263 268 270 271 274 274 275 274 275 275 276 275 277 277 277 277 277 277 276 276 276 275 275 277 276 277 277 276 275 276 275 275 274 273 271 270 269 267 265 264 262 261 259 258 259 257 256 256 255 256 257 256 255 253 254 253 255 256 254 253 251 253 254 254 253 253 254 254 255 255 255 255 255 255 255 255 256 255 256 256 257 259 259 258
272 272 273 269 266 267 268 273 274 267 270 276 277 278 277 277 277 277 276 275 274 274 275 275 275 275 276 277 277 276 275 276 275 273 273 272 271 270 267 265 263 261 260 260 259 257 256 255 255 254 254 255 256 254 253 253 253 253 256 254 253 252 251 253 253 252 252 253 253 254 254 254 254 254 255 254 255 255 255 259 263 263 261 261 264 268
274 275 274 270 270 270 275 276 277 277 276 277 279 278 276 276 276 275 276 276 277 276 276 276 276 276 274 273 274 274 274 276 275 272 271 270 269 268 266 264 262 261 260 258 257 255 255 255 255 254 253 255 255 253 253 253 253 253 254 255 254 253 252 251 252 253 253 253 253 254 255 254 254 255 255 255 255 255 255 255 257 263 266 266 266 267
Wind_Speed
2 4 6 8 9 10 10 12 13 10 4 2 0 1 6 5 6 4 4 9 1 2 4 5 3 3 8 9 7 8 5 10 5 8 7 6 6 7 8 8 8 9 7 5 6 8 9 10 10 9 10 10 12 14 14 14 14 13 11 12 13 9 10 10 9 8 7 6 5 6 6 4 5 5 5 7 6 6 5 5 5 5 3 2 2 2
3 4 8 11 11 12 13 9 4 2 1 3 4 4 8 4 9 4 5 2 2 2 3 1 2 7 8 6 7 6 10 11 6 7 8 8 7 7 7 7 7 4 3 6 9 10 10 11 11 10 10 12 16 14 14 14 12 12 13 13 11 11 11 10 8 6 7 5 2 4 3 4 5 6 6 6 6 6 6 6 5 5 4 4 4 4
3 8 12 15 12 4 2 1 4 5 5 1 4 4 3 8 3 9 6 1 2 0 7 2 3 7 10 3 5 9 9 5 6 5 4 7 7 6 6 6 5 6 6 7 8 8 9 9 9 9 10 11 11 12 13 12 14 14 13 11 10 11 10 10 10 8 6 5 6 5 4 4 4 4 4 5 4 5 6 6 6 6 6 6 6 5
4 6 15 11 2 4 4 3 3 1 1 3 2 1 8 3 1 6 3 3 4 1 3 2 5 8 3 6 8 5 5 6 6 9 9 7 8 8 7 5 5 6 6 9 9 9 9 8 10 12 12 11 11 12 13 13 12 11 12 11 12 11 11 11 10 9 7 5 4 6 6 7 7 3 4 5 7 7 7 7 6 7 6 6 6 6
12 8 2 1 5 5 6 6 3 2 5 3 6 6 6 4 5 7 5 3 3 2 1 3 5 7 2 3 3 3 4 6 5 7 7 7 6 5 5 7 7 7 7 8 9 10 10 13 13 12 10 10 13 12 12 11 11 9 11 11 11 11 11 10 12 11 9 11 11 9 9 9 9 9 11 9 9 9 5 5 7 5 4 5 6 6
9 7 1 3 2 4 4 6 5 4 4 3 6 10 8 6 5 3 1 3 7 4 2 3 5 4 3 2 4 4 2 4 3 6 6 6 6 5 8 7 6 7 6 7 8 9 9 9 9 11 12 13 12 12 10 9 10 11 11 12 12 11 12 12 12 11 10 10 10 11 11 10 8 9 10 10 8 9 8 8 6 6 6 6 5 5
8 4 4 5 5 3 5 6 4 6 5 0 7 6 8 4 4 2 0 2 1 2 1 3 1 7 7 4 6 3 3 4 3 4 5 5 5 6 6 6 6 6 7 7 8 8 10 10 11 12 12 11 12 10 8 9 11 12 12 11 12 11 11 11 11 13 10 11 10 10 9 8 8 7 6 5 7 8 8 7 10 9 10 9 8 6
1 3 4 3 4 4 3 6 5 10 7 5 1 4 6 6 4 2 2 2 4 1 4 1 3 5 4 8 4 6 6 4 4 4 4 4 5 5 5 5 6 6 5 5 7 8 7 8 10 10 8 9 9 7 8 10 10 12 12 12 12 11 11 11 11 13 11 10 10 10 9 9 9 7 6 8 7 8 9 11 11 10 10 11 10 10
3 1 2 4 3 4 7 6 3 8 7 3 3 6 4 3 3 4 1 2 1 1 7 4 1 1 4 8 2 7 4 3 3 3 3 3 3 4 5 5 5 5 5 5 6 7 7 8 9 7 8 7 8 9 10 9 9 9 10 10 11 13 12 11 12 12 12 11 10 10 9 10 7 7 7 5 8 9 9 12 11 11 10 10 11 11
2 0 3 7 6 7 5 0 5 9 5 2 4 3 5 4 4 2 2 2 1 1 7 6 3 3 7 5 3 0 3 5 6 5 4 3 3 3 3 4 4 4 4 4 5 5 6 6 7 5 4 9 9 7 7 7 8 8 9 12 14 14 11 10 12 12 13 12 10 12 11 11 10 9 8 9 10 9 8 10 10 9 10 9 10 10
1 4 4 4 5 5 3 1 1 0 2 4 5 2 4 6 3 3 5 3 3 4 8 9 9 7 5 4 7 6 4 2 7 3 3 3 3 3 3 3 3 3 3 4 4 5 4 5 5 4 8 6 7 7 8 9 9 9 10 11 14 11 10 11 12 12 12 11 11 11 11 11 11 10 10 11 11 10 11 10 9 9 8 8 8 9
3 1 0 2 2 3 4 3 4 2 2 4 1 2 3 3 6 3 3 4 2 7 6 4 8 6 6 5 3 2 6 2 14 13 10 8 5 3 3 2 2 2 2 3 4 4 4 6 7 5 8 8 8 10 11 9 9 10 9 10 13 13 12 11 10 12 12 11 11 10 10 11 10 10 9 10 10 9 9 9 9 8 8 9 8 8
3 7 2 6 3 6 1 2 2 4 2 5 5 5 3 4 5 2 1 1 5 6 2 2 5 2 9 5 3 5 6 7 0 10 14 12 9 6 4 3 1 1 1 3 4 3 4 6 6 8 6 8 11 10 9 9 8 8 9 11 13 12 10 10 10 11 11 11 10 10 10 9 9 10 9 9 10 8 9 8 9 10 9 9 10 10
5 2 2 4 3 3 6 6 2 0 1 6 5 5 5 1 1 3 5 1 5 6 3 4 0 3 3 3 4 4 5 6 3 8 7 8 9 7 5 3 2 2 1 2 3 3 4 4 4 4 6 7 7 8 8 8 8 8 9 9 12 10 9 9 10 10 11 11 10 9 9 9 8 8 8 8 9 8 7 7 7 7 7 7 7 8
1 3 5 6 4 2 7 9 9 5 7 8 3 9 8 8 5 4 3 5 5 6 2 4 1 5 2 2 3 2 3 5 6 7 6 5 5 5 4 3 1 1 1 1 3 4 4 4 4 4 5 6 6 6 7 6 7 6 8 8 9 9 9 9 9 9 11 10 10 9 8 7 6 6 7 7 7 8 8 7 7 6 5 6 6 6
6 5 4 3 1 4 8 1 6 5 4 2 3 5 5 7 5 4 5 3 2 2 4 1 5 2 2 0 1 2 3 6 5 6 5 5 3 3 3 4 3 2 2 2 3 4 4 4 4 4 5 5 5 5 5 6 5 7 6 6 7 7 6 7 7 7 7 7 6 7 8 8 7 7 7 7 7 7 6 6 6 6 5 5 5 5
2 3 1 4 3 5 5 4 2 4 4 3 5 5 6 3 4 1 2 0 1 2 8 2 4 1 0 2 1 1 4 3 3 4 4 4 4 3 4 4 3 2 2 3 3 3 4 3 3 4 4 4 4 4 5 5 4 5 5 6 7 6 5 6 6 5 5 5 6 6 6 6 7 7 7 6 6 6 6 5 5 5 5 5 5 6
5 5 1 3 3 2 1 1 2 2 3 7 2 8 1 2 3 4 4 3 2 4 7 2 6 2 1 7 2 1 3 3 2 4 4 4 3 5 5 4 4 3 2 2 2 2 2 2 3 3 3 4 4 4 4 4 3 3 3 4 5 5 6 5 4 5 4 5 5 5 6 6 5 5 5 5 4 4 4 4 3 3 4 5 5 4
4 4 4 2 1 2 1 0 2 1 1 3 3 2 3 3 1 2 5 3 2 3 4 5 2 3 8 6 3 6 9 8 5 4 5 5 5 6 4 4 4 2 2 3 3 3 3 3 3 3 4 4 4 3 3 3 3 5 5 5 5 6 4 4 4 4 3 4 4 3 4 4 5 4 4 3 4 4 5 6 6 5 5 5 5 5
1 3 5 1 2 0 0 4 5 3 1 1 1 1 0 2 2 4 5 4 4 4 1 6 3 9 4 5 12 12 11 9 8 6 7 8 7 7 7 6 6 4 4 4 3 3 3 3 3 3 4 4 4 4 4 4 4 6 5 5 6 6 6 6 7 6 7 6 6 7 6 5 4 4 4 4 5 7 6 5 6 6 6 7 6 5
3 2 4 1 2 1 2 3 7 8 5 1 1 2 1 0 2 3 1 4 4 3 5 4 7 5 2 3 7 7 10 13 13 12 10 9 9 8 8 7 6 5 6 5 5 4 3 3 4 3 2 2 1 2 2 2 2 1 2 2 3 3 4 3 4 4 4 4 4 4 4 4 3 4 3 4 4 4 4 4 4 4 4 4 6 5
2 1 6 0 0 5 5 2 4 5 6 6 8 8 8 3 2 4 9 2 1 3 4 3 12 5 4 1 2 3 7 12 13 13 11 10 10 10 9 7 6 6 6 5 4 4 5 5 4 2 1 1 0 1 2 1 1 1 0 0 1 0 1 1 2 2 3 3 3 3 3 4 3 3 3 3 4 4 4 5 6 6 6 7 7 5
3 2 2 6 6 6 2 2 1 1 3 2 5 3 4 2 5 3 6 5 1 4 3 2 1 7 1 1 1 3 9 12 10 9 10 10 10 9 7 5 5 6 7 7 7 6 5 4 4 3 2 1 2 2 1 1 1 1 2 1 1 1 3 2 3 2 2 2 3 3 4 4 4 3 4 4 4 4 4 5 5 6 6 8 9 8
6 2 1 4 3 3 3 2 3 4 1 0 1 3 3 3 5 7 4 3 2 1 2 2 4 3 1 1 2 0 1 3 5 9 12 9 6 5 7 7 7 6 6 5 4 3 4 3 2 2 2 3 2 2 3 3 3 3 3 3 3 3 4 3 3 3 2 3 3 3 3 4 4 5 5 5 5 5 6 6 6 6 6 7 6 8
2 3 6 1 2 5 4 4 5 3 4 1 1 1 1 2 2 1 2 0 1 5 6 4 12 6 1 3 3 2 1 4 6 7 4 5 4 7 6 4 5 5 5 5 4 4 3 3 3 4 4 4 4 4 4 4 4 4 4 3 4 4 3 3 3 3 3 2 3 4 5 6 5 5 5 5 5 5 5 5 5 5 5 6 7 6
2 3 6 6 10 10 10 6 4 5 6 1 0 0 1 3 4 3 3 3 6 1 8 9 10 1 1 2 0 0 1 3 5 5 4 3 4 5 4 5 6 5 5 5 5 4 5 5 4 4 4 4 4 4 4 4 3 3 4 4 4 5 6 5 4 4 4 4 3 4 4 4 4 4 4 4 4 5 5 6 5 6 6 5 8 8
2 0 2 6 9 13 9 3 3 2 2 2 2 1 3 1 1 2 1 2 4 2 6 6 6 3 4 3 5 6 5 8 9 8 7 7 7 6 5 6 6 6 6 6 6 5 3 2 4 5 5 5 5 1 3 3 2 1 2 4 4 3 2 3 3 3 4 3 4 3 3 3 4 4 4 5 6 6 6 7 7 7 8 8 8 9
2 1 4 3 4 3 5 5 4 3 2 2 2 7 6 6 4 5 7 5 3 2 11 10 3 4 10 8 8 7 7 6 7 7 7 7 8 8 7 4 5 5 5 4 4 4 5 6 5 5 5 1 2 2 2 2 3 4 4 4 4 5 5 5 5 4 4 3 3 3 5 5 5 5 5 5 5 6 6 6 8 8 8 8 9 9
4 4 3 3 4 2 3 3 2 1 3 4 6 8 12 10 4 6 4 9 8 10 15 8 2 4 6 9 4 9 9 10 10 12 12 10 4 2 5 6 7 7 5 5 6 6 6 6 6 4 0 0 2 4 4 4 4 4 4 3 3 4 5 4 3 4 4 4 4 5 6 6 5 4 5 6 6 6 7 8 8 9 9 9 10 10
4 2 4 1 3 3 2 1 2 4 1 3 7 10 10 7 5 5 10 11 10 8 8 10 9 15 13 10 4 7 10 9 7 3 0 2 5 6 6 7 7 7 7 7 7 8 7 6 3 3 4 5 5 4 3 3 3 4 5 5 4 5 4 3 3 3 3 3 3 4 4 4 3 4 4 5 6 6 7 7 8 8 8 9 9 10
4 4 6 1 1 3 3 2 3 1 2 7 9 10 9 4 5 10 9 6 5 7 13 14 13 15 13 3 4 2 1 1 1 4 6 4 5 8 8 8 7 7 7 8 7 7 4 4 5 6 6 5 5 5 4 4 3 3 3 3 3 4 3 4 5 5 6 7 6 7 8 8 9 9 9 9 9 8 9 10 9 8 8 8 7 9
2 4 4 2 2 4 2 1 4 3 3 4 10 14 8 6 11 11 8 6 7 11 9 4 6 11 13 1 0 0 3 5 7 7 4 5 6 7 8 8 8 8 7 7 5 5 7 8 8 8 8 7 5 5 5 5 4 4 5 4 5 4 4 5 5 6 6 6 7 7 8 8 8 9 10 10 10 11 11 11 11 11 11 11 11 10
3 5 3 2 1 4 4 0 1 3 5 11 17 17 12 12 14 9 7 6 9 4 4 8 12 10 8 5 4 4 6 6 5 5 5 4 5 7 9 9 8 7 6 6 8 8 9 10 9 8 7 5 5 5 3 3 5 6 4 5 3 3 5 5 5 5 6 6 6 6 6 7 7 7 8 8 9 9 10 11 11 11 11 13 12 11
3 6 3 2 3 3 2 0 2 2 5 15 1 3 7 7 9 11 12 12 7 7 7 8 9 6 4 4 7 9 6 7 8 8 5 9 8 7 6 5 6 6 6 7 8 8 7 5 5 5 5 5 5 5 4 5 6 4 3 2 2 3 4 4 5 4 5 5 5 5 6 7 6 7 7 7 8 8 9 10 10 10 9 10 10 10
5 3 5 3 4 3 0 2 2 10 16 3 1 1 3 6 5 10 10 8 7 6 7 7 7 6 9 9 10 9 5 4 3 5 3 4 6 7 7 7 6 5 8 8 6 5 7 8 6 7 7 6 5 4 4 6 4 2 3 3 3 3 5 4 4 4 4 3 4 6 5 6 6 7 7 8 8 8 8 9 10 10 9 9 9 10
5 6 2 0 4 4 3 5 3 13 6 5 9 2 0 1 1 1 5 9 10 9 10 9 11 10 9 9 3 0 5 4 1 1 3 3 5 7 6 7 6 6 8 8 9 8 9 9 9 9 7 5 5 5 5 4 2 3 3 2 4 4 3 3 3 4 2 3 4 4 6 5 6 6 7 8 8 8 10 9 9 10 10 9 9 8
9 3 4 4 2 7 5 8 13 7 13 14 12 3 5 5 5 7 7 9 8 6 7 6 9 9 7 2 2 2 3 4 2 2 2 4 5 5 7 7 8 9 8 8 9 10 6 5 7 8 7 6 5 5 4 3 3 3 2 3 3 2 3 2 2 2 2 3 4 5 4 5 6 7 7 8 9 9 9 10 10 9 7 10 10 9
7 11 3 7 5 6 5 5 4 2 8 14 5 1 1 2 2 5 4 8 4 2 5 9 8 4 2 2 4 3 3 4 2 5 5 4 3 6 4 5 7 7 7 5 3 5 6 6 7 6 7 7 6 5 3 3 3 3 2 1 1 1 2 1 2 1 2 4 4 5 5 6 5 7 8 8 9 10 10 9 9 9 7 9 11 11
2 2 4 8 3 4 3 8 8 7 10 5 4 3 1 1 4 4 1 7 5 3 2 4 2 4 6 8 5 4 4 3 7 7 7 5 4 5 7 5 6 4 5 9 12 10 8 7 8 8 7 6 6 4 3 3 3 2 0 1 1 1 1 2 1 2 3 4 5 5 5 5 5 6 8 9 9 9 10 10 10 9 8 8 8 10
5 3 5 5 7 9 6 7 11 5 5 3 4 2 2 4 3 5 2 8 3 3 4 5 5 5 7 6 6 7 8 8 6 9 6 9 8 7 7 7 4 5 5 4 4 7 9 9 8 6 6 5 5 3 3 2 1 0 1 1 1 1 1 2 1 2 3 5 5 5 5 5 6 7 8 10 10 9 9 9 9 9 9 9 7 9
5 1 6 15 12 12 14 7 3 6 4 4 4 5 1 2 3 3 11 6 3 5 6 6 8 9 8 7 7 7 9 9 8 5 6 8 4 3 1 2 6 8 11 9 9 8 8 6 6 7 6 5 4 3 2 2 1 0 1 1 1 2 2 1 2 3 4 5 5 5 6 5 6 9 9 8 10 9 9 8 9 10 9 10 9 8
3 2 4 2 9 11 8 8 10 6 6 5 5 5 4 3 4 11 6 3 8 7 6 10 8 8 8 11 9 9 9 10 2 1 4 6 10 7 5 6 7 5 3 4 7 7 7 6 7 7 5 3 4 3 1 2 1 1 2 1 3 3 2 2 3 4 4 5 5 6 6 7 7 7 8 8 8 9 10 8 8 9 9 9 9 10
10 8 7 10 4 1 2 6 3 9 4 12 7 2 2 5 7 4 3 2 4 4 8 6 8 7 9 9 11 11 10 5 6 6 7 8 7 7 9 9 10 11 11 9 6 4 8 7 6 6 5 4 3 2 1 2 1 1 1 3 4 2 2 3 3 4 5 6 6 7 7 7 8 9 7 8 8 9 11 9 8 8 8 10 10 9
4 5 3 5 5 6 7 9 10 8 2 4 10 8 5 10 6 5 4 4 3 4 5 6 7 9 9 11 11 11 9 8 4 4 4 6 7 5 8 9 7 7 6 3 5 7 6 7 6 5 4 4 3 2 1 2 1 1 2 5 3 2 2 3 4 4 5 6 7 7 7 7 8 8 7 8 9 8 10 10 9 8 8 8 8 9
7 9 7 5 3 8 8 6 4 5 5 7 9 7 6 9 7 7 5 6 5 5 6 5 8 8 9 11 10 10 10 9 9 8 9 10 11 10 11 12 13 13 12 11 9 6 5 8 7 5 4 3 2 1 1 1 1 1 3 3 1 3 3 4 4 5 6 7 7 7 7 7 7 8 7 8 7 9 9 10 8 9 7 8 8 8
3 3 1 3 4 1 3 5 2 1 2 6 8 7 7 7 4 5 6 6 5 7 7 8 8 9 9 9 9 7 8 9 9 8 7 8 10 8 5 5 5 6 7 7 6 7 5 5 5 5 4 2 2 1 1 1 1 2 4 2 3 3 4 4 5 5 7 7 6 7 7 8 8 7 8 8 6 7 8 9 9 8 9 8 8 8
4 2 1 3 3 3 5 1 5 6 3 4 10 10 6 4 4 5 5 7 7 7 6 6 9 9 10 9 11 13 12 11 10 10 8 6 8 8 10 10 9 11 12 10 9 8 6 5 6 5 4 3 2 3 1 2 2 3 3 4 4 4 4 4 5 6 7 7 7 6 6 7 7 7 6 6 6 6 8 8 7 7 9 9 9 9
6 3 3 7 5 6 8 5 9 7 5 7 8 8 8 10 9 7 8 8 8 7 7 9 7 6 4 5 9 10 13 11 9 10 7 8 9 9 9 9 10 7 5 7 8 7 6 5 5 4 4 3 4 3 2 2 3 3 4 4 5 4 4 4 5 6 7 7 7 6 6 7 8 9 8 7 6 8 8 8 7 7 8 10 10 10
4 3 4 4 5 4 4 6 6 5 6 9 8 6 8 8 8 8 8 8 8 8 9 6 5 8 7 11 10 10 10 11 9 10 10 8 6 7 9 9 8 9 9 9 6 6 6 5 4 4 3 3 2 2 2 3 3 3 4 5 4 4 4 5 5 6 6 6 6 7 6 6 7 7 8 8 7 7 8 9 9 9 9 10 10 10
3 10 4 4 3 4 8 9 4 4 7 9 10 12 11 10 9 10 8 6 7 8 9 9 9 8 10 10 9 9 11 11 10 7 9 9 9 9 8 8 7 7 6 5 6 5 4 5 4 4 3 2 2 2 3 4 4 4 4 4 4 4 4 5 5 5 6 6 6 6 6 6 7 6 7 7 8 9 9 12 18 14 11 11 18 25
10 14 7 8 9 10 9 11 11 10 9 11 12 8 6 6 6 8 10 11 11 10 9 9 10 11 8 11 9 9 10 10 10 6 5 5 7 7 9 11 10 8 8 6 5 4 4 3 3 3 2 2 2 2 3 4 4 4 5 4 4 4 4 4 4 5 6 5 5 7 7 7 7 7 7 7 8 7 9 10 12 19 21 20 21 23
Wind_Direction
119 127 172 207 216 208 213 204 209 227 215 251 23 196 260 258 274 277 279 260 65 336 249 261 282 268 282 282 313 339 15 27 24 93 83 74 71 67 63 56 53 48 37 4 15 19 18 19 19 21 25 24 33 29 25 30 28 28 25 28 25 11 20 27 27 30 32 29 23 44 50 54 22 28 39 43 30 41 31 29 22 24 32 46 77 113
81 173 233 223 213 208 216 220 228 294 255 226 260 283 278 245 263 243 245 300 318 152 287 309 337 294 285 306 2 360 45 28 32 78 81 82 71 65 63 59 49 40 33 21 28 21 23 22 20 24 28 28 34 22 26 28 25 26 26 30 23 19 23 26 19 24 43 27 54 87 53 72 32 25 29 30 23 25 37 34 32 35 42 47 43 32
162 197 230 227 222 229 284 146 171 195 231 153 203 230 286 266 256 277 272 317 258 41 265 306 323 282 281 21 29 52 59 51 35 56 70 85 77 66 57 59 46 43 35 31 33 28 27 23 25 32 34 37 37 33 30 24 29 25 24 21 24 24 25 21 20 24 25 13 26 53 41 62 81 61 62 66 40 43 50 40 33 30 27 29 41 40
220 277 245 244 131 203 268 217 174 155 124 204 229 162 236 232 332 299 287 348 337 76 272 322 303 275 280 78 67 33 69 74 60 61 62 57 74 67 54 44 50 44 33 37 28 27 23 26 31 33 35 32 36 34 31 26 27 29 26 22 22 23 24 24 18 23 18 36 50 50 54 40 64 52 7 34 33 24 34 33 26 34 26 29 30 27
208 225 238 143 159 164 223 253 193 163 248 241 210 229 245 245 224 185 253 307 287 352 54 357 327 313 285 138 79 90 86 79 60 72 63 54 61 71 73 60 42 44 34 34 31 27 25 29 29 30 31 33 38 34 32 29 29 32 29 27 29 28 23 23 21 22 24 31 30 22 33 36 29 22 21 19 5 3 3 18 21 2 30 39 38 28
273 261 96 104 117 169 195 270 249 153 242 304 233 207 222 221 248 265 354 30 14 328 331 54 348 308 293 290 165 164 74 63 51 70 56 54 47 47 52 44 32 37 35 39 35 30 28 32 30 31 31 35 34 32 26 27 33 34 32 30 30 31 28 22 21 22 34 42 46 42 41 34 32 34 22 14 351 344 357 341 314 357 22 26 29 34
222 230 151 196 157 150 177 212 240 151 205 19 271 196 210 194 184 128 75 66 312 186 282 58 66 268 320 322 179 176 107 90 46 58 64 47 50 47 48 42 35 28 25 27 35 30 35 27 37 34 33 31 36 26 20 30 34 36 36 35 37 36 31 24 25 26 34 41 42 53 60 61 54 50 22 1 8 12 359 11 12 356 360 9 12 10
186 278 195 203 196 178 190 266 233 161 141 226 246 124 118 124 143 184 106 159 230 267 301 356 160 242 303 278 206 173 126 117 86 65 57 57 53 50 52 45 41 33 28 30 35 34 32 38 42 37 27 35 36 25 29 34 33 36 35 38 38 39 37 31 28 34 33 44 41 44 48 49 46 48 34 18 12 17 15 24 14 14 10 10 13 10
155 208 167 174 173 182 215 213 176 159 145 218 194 130 136 152 179 140 124 178 211 34 283 317 352 289 254 260 17 162 146 181 132 134 101 80 58 58 52 43 41 37 31 30 37 31 25 33 38 29 31 25 38 34 35 33 31 34 37 43 45 43 38 32 34 38 37 43 46 49 44 46 36 37 35 31 37 31 17 27 12 15 12 16 20 22
318 178 220 157 144 209 221 262 169 162 188 262 163 94 66 65 70 121 109 100 328 72 263 224 187 226 273 268 318 3 254 210 180 166 143 107 88 67 55 47 44 32 28 28 36 31 29 28 37 24 23 38 34 32 34 37 37 37 39 42 46 40 37 32 36 39 41 40 43 48 45 48 34 26 25 37 36 33 27 29 16 10 14 8 15 13
269 296 159 120 197 211 135 71 142 244 150 120 84 61 1 35 34 30 69 91 50 269 250 213 200 176 288 260 209 158 220 184 135 127 125 110 94 73 62 60 47 44 29 28 30 29 29 27 36 17 45 38 36 35 38 37 35 35 39 41 48 39 38 35 37 39 41 42 42 47 46 47 43 34 36 35 32 27 32 29 15 12 3 12 13 11
342 349 160 256 84 87 107 83 17 50 87 114 97 114 33 333 8 31 345 40 132 269 263 237 188 169 187 290 328 306 334 235 166 165 164 150 139 125 97 71 53 41 40 37 55 41 23 35 31 30 42 39 36 39 36 32 32 36 37 41 51 40 35 35 34 41 41 41 42 46 45 48 45 44 44 44 39 31 37 32 24 9 13 11 11 16
276 235 240 325 228 143 99 89 328 23 23 84 88 53 105 260 31 318 20 286 210 221 267 101 129 45 250 224 286 327 342 328 231 160 157 149 145 137 133 135 112 62 48 58 63 56 40 45 35 35 35 41 38 37 33 31 32 34 38 39 51 41 33 35 35 43 41 43 41 41 42 44 45 47 48 46 45 34 38 31 30 22 16 6 13 8
275 288 320 268 338 200 130 147 223 88 234 115 149 139 93 220 203 255 266 225 303 293 274 129 73 281 248 295 21 324 329 327 81 109 118 132 135 140 148 151 128 88 64 53 59 62 64 53 49 47 47 49 48 42 39 36 36 33 38 35 47 41 33 34 40 40 42 40 39 37 42 42 41 45 48 46 48 41 43 38 37 31 19 12 10 1
253 337 269 147 228 190 166 195 180 167 161 206 123 151 183 145 153 229 202 212 221 221 279 272 64 228 139 225 335 355 355 38 57 87 98 103 123 138 144 141 135 117 68 91 77 70 68 62 59 64 60 55 52 48 45 43 40 42 42 39 41 40 28 35 38 39 42 39 36 37 41 45 43 46 46 46 46 44 41 36 39 30 17 20 359 3
207 218 257 225 256 156 178 192 120 101 66 167 160 79 93 233 131 186 206 155 243 318 327 203 197 205 154 329 304 35 50 58 64 86 104 110 122 129 129 147 156 150 118 70 79 68 62 67 59 60 60 59 53 51 49 45 41 46 43 45 47 44 32 34 37 40 44 40 40 40 42 38 39 39 40 39 34 35 38 34 34 24 18 5 354 351
52 284 281 333 73 160 200 155 216 137 212 213 105 191 210 165 126 54 351 40 92 42 255 155 307 303 217 221 83 50 77 65 78 87 116 142 157 157 164 172 183 167 95 88 86 93 78 64 64 68 71 62 59 53 53 53 47 56 49 46 44 36 36 34 34 40 40 41 44 38 40 36 36 36 39 37 32 27 21 24 20 19 3 357 3 354
154 237 295 128 236 261 219 162 103 31 150 102 176 236 170 126 114 124 211 321 70 202 265 70 210 289 116 286 132 149 125 176 135 168 168 180 183 174 194 186 188 169 139 131 128 123 113 96 78 71 65 68 69 65 51 48 63 83 91 80 62 50 41 28 34 34 36 34 36 32 33 36 37 36 33 28 25 16 18 14 7 350 356 357 341 345
118 288 283 237 166 291 4 178 355 21 51 145 192 213 117 261 247 318 88 254 256 260 265 287 246 236 189 226 129 233 191 195 183 197 186 197 210 203 202 214 210 186 146 142 138 110 103 79 64 72 67 50 47 47 48 39 36 40 35 35 48 40 39 31 34 32 40 45 34 33 29 30 25 27 25 17 11 14 16 9 2 359 345 335 337 336
49 173 290 318 160 307 31 86 215 247 345 54 58 44 238 111 184 142 204 192 130 256 286 290 319 258 205 210 186 207 189 165 171 187 206 200 202 198 201 199 192 186 173 163 155 151 137 119 105 74 68 52 29 24 14 21 23 27 13 22 18 17 17 14 15 14 13 3 16 360 3 6 5 13 11 9 10 3 4 349 351 346 346 339 333 332
203 122 236 274 305 42 182 185 212 165 168 86 169 259 306 346 228 100 352 141 189 188 212 254 283 276 268 197 176 202 167 172 174 185 193 199 206 209 204 193 190 181 176 171 166 159 145 131 123 110 100 54 1 9 11 34 36 345 9 11 20 22 348 358 347 5 358 2 356 5 348 339 342 342 358 352 3 345 339 325 314 318 303 302 324 322
130 191 217 358 112 196 238 243 183 165 171 163 171 209 179 137 233 249 262 50 123 182 234 227 260 283 262 162 205 193 175 169 191 176 181 198 205 204 207 204 187 174 179 171 166 154 151 161 175 210 285 192 97 56 83 15 77 65 3 240 300 341 305 302 310 331 330 344 334 336 329 324 318 312 343 348 337 335 327 329 327 325 333 331 319 332
154 132 106 219 191 197 215 38 305 203 121 169 136 236 158 138 111 133 236 257 25 248 111 175 253 260 269 272 291 192 171 184 180 171 179 197 204 204 201 190 183 180 171 173 172 175 179 187 198 201 189 156 170 195 200 237 191 227 241 273 268 197 268 219 247 263 271 296 318 310 314 317 320 332 327 338 316 324 319 318 320 322 327 323 321 325
79 95 208 278 315 317 329 304 21 43 93 351 347 73 118 186 180 184 210 190 195 254 266 305 253 256 339 350 303 259 182 172 168 181 184 199 198 184 199 182 175 169 181 180 182 183 190 200 187 173 202 215 219 216 223 226 238 247 254 246 249 239 250 262 247 247 259 280 299 305 328 319 329 336 327 330 320 327 322 326 320 320 320 308 311 309
126 268 141 230 347 330 346 350 1 341 51 122 200 286 155 105 83 157 89 66 181 206 239 224 252 241 336 12 356 88 78 174 197 219 216 202 192 205 200 182 178 179 177 182 179 199 191 195 192 205 206 202 210 213 219 226 234 238 247 245 246 250 261 277 302 307 290 308 312 331 354 338 341 338 328 317 313 307 307 309 308 308 309 308 305 301
155 193 129 188 224 236 246 214 245 255 225 222 176 319 284 135 143 106 234 181 235 199 211 232 251 310 329 336 328 353 9 252 246 234 258 216 210 215 214 198 190 178 190 188 199 183 194 199 195 189 195 203 206 207 216 228 265 334 340 337 358 337 340 346 338 340 347 2 355 338 354 338 331 320 309 305 307 311 313 314 319 321 320 318 314 315
166 103 173 196 204 236 230 193 246 116 106 173 260 161 230 195 218 147 143 230 216 299 270 239 210 262 264 203 226 221 213 215 226 238 236 243 233 216 204 195 188 186 184 189 191 200 189 178 198 206 209 210 215 223 22 29 24 15 3 1 11 12 9 12 32 40 48 24 28 351 326 312 316 310 314 322 321 322 326 329 330 332 326 325 323 319
78 219 239 183 243 238 153 182 197 142 169 228 228 263 235 206 190 176 192 212 179 179 258 248 205 186 250 242 204 216 225 235 242 242 249 250 242 216 196 182 182 185 185 175 182 175 185 203 212 216 221 260 20 77 108 74 73 63 68 59 41 34 34 24 33 31 29 15 356 347 336 335 327 332 334 333 333 332 336 340 342 338 331 330 324 318
144 206 281 117 268 186 171 167 149 126 207 211 233 242 258 257 161 182 204 215 193 215 255 269 224 203 253 252 179 197 211 221 225 229 226 228 233 142 146 164 177 183 181 181 197 195 198 207 213 219 177 117 97 85 99 92 67 76 82 84 58 44 32 12 34 24 16 6 1 350 335 329 329 335 346 338 342 348 348 347 338 332 329 325 320 318
87 270 210 144 229 300 287 223 230 176 227 250 237 241 239 240 233 197 228 227 208 236 251 259 265 262 254 263 236 221 213 216 233 237 111 180 199 173 165 176 177 183 185 192 200 203 206 205 177 143 129 117 121 124 113 107 95 74 65 46 35 40 18 31 26 26 5 1 344 326 316 316 322 332 331 341 346 346 338 333 329 325 321 316 313 314
109 267 105 337 75 290 308 307 271 212 206 255 264 257 249 250 245 230 236 247 231 257 252 254 265 271 271 237 208 264 209 207 339 240 227 209 170 173 176 178 181 189 196 202 204 210 193 163 147 138 139 148 150 159 138 110 113 109 87 68 54 39 15 22 15 13 7 355 353 347 350 352 350 350 354 351 345 343 342 337 333 327 320 317 316 314
71 243 56 62 85 300 320 237 269 39 3 276 275 268 255 251 262 253 235 211 201 226 238 260 264 257 266 234 30 290 145 173 200 213 204 201 191 171 170 182 188 197 204 202 190 158 148 154 161 160 160 161 152 144 145 131 117 89 57 41 33 22 13 19 16 6 358 352 349 352 354 352 352 354 348 348 343 340 337 333 331 330 327 325 325 322
164 135 125 112 136 258 278 224 272 38 11 312 261 252 244 235 239 260 262 220 217 195 190 215 235 244 249 271 288 249 194 221 213 200 209 214 196 177 179 188 195 202 197 170 163 171 169 169 171 164 156 145 128 109 95 109 90 69 57 43 17 20 20 14 10 0 356 350 347 349 356 357 354 345 342 340 338 332 331 331 327 327 328 323 322 322
118 137 155 164 148 243 304 317 36 60 266 245 345 138 179 221 221 230 246 249 226 171 211 205 237 249 272 264 242 256 218 208 200 218 200 176 179 198 204 195 199 196 180 172 174 175 176 162 162 154 138 128 120 118 114 87 82 82 76 60 19 30 19 10 2 2 343 342 344 1 358 353 347 338 333 331 329 327 324 324 318 317 316 312 315 317
159 172 175 145 137 231 73 56 248 244 247 284 323 312 195 210 212 218 247 254 237 224 231 256 260 251 232 230 234 246 242 212 195 163 189 199 163 176 188 201 205 184 172 173 178 177 173 171 159 134 128 133 135 130 106 78 77 76 61 33 25 28 21 10 355 344 326 347 1 2 348 346 337 329 324 324 321 319 314 311 310 309 310 309 310 314
176 150 153 101 117 46 102 176 194 239 269 314 279 251 350 102 197 42 303 267 246 220 208 223 238 237 240 245 279 251 153 149 104 295 234 241 192 183 185 203 198 173 172 185 174 184 176 179 167 154 139 130 113 95 84 85 75 65 42 28 25 18 10 356 345 322 343 7 354 348 339 334 325 319 317 315 313 310 308 307 303 306 309 304 301 297
158 92 143 216 185 196 203 196 234 350 316 291 279 205 171 201 175 166 236 265 239 194 178 204 239 243 240 293 169 135 93 69 57 302 256 232 225 205 185 197 174 184 180 189 184 182 173 146 134 130 124 115 104 102 96 88 71 63 41 22 12 11 339 342 326 321 10 345 336 329 325 321 314 311 309 308 308 305 304 306 307 304 304 300 299 300
171 172 216 136 263 140 157 249 313 289 251 259 251 268 317 206 161 184 175 280 292 233 199 182 222 220 163 177 151 155 100 74 278 259 251 257 220 189 221 185 179 182 187 158 100 113 120 119 112 120 124 119 102 95 95 86 76 66 44 357 338 331 307 312 289 358 347 323 312 311 309 308 306 303 304 302 299 299 300 300 297 295 302 298 303 300
340 148 173 176 199 98 177 203 218 222 240 226 261 248 243 164 150 98 80 273 272 187 178 149 155 186 175 162 184 141 118 179 238 238 237 218 227 199 179 201 190 181 164 162 157 148 143 136 131 128 118 115 105 92 89 87 82 75 29 259 273 287 287 277 292 338 315 302 300 297 300 298 298 296 296 295 292 294 297 298 295 295 295 289 289 290
151 173 158 189 216 218 203 221 233 225 250 269 234 225 212 110 77 66 359 274 261 191 191 170 193 185 209 199 154 161 161 211 238 249 202 208 200 198 176 161 148 141 141 129 113 135 133 133 124 115 113 111 112 108 98 95 96 98 237 261 263 285 265 265 309 303 296 290 292 293 291 295 293 291 289 290 291 290 287 290 292 291 293 290 287 292
169 263 205 207 217 225 222 239 313 286 265 206 197 235 194 134 74 139 224 233 228 197 205 180 198 198 182 166 170 179 225 201 216 217 184 191 189 211 182 153 171 163 158 156 147 140 133 134 132 134 132 125 127 120 113 112 111 224 242 254 269 259 261 284 299 290 287 291 289 287 288 289 285 286 283 280 286 288 287 287 287 293 291 291 291 286
345 89 325 310 225 224 221 223 230 264 233 179 266 173 187 111 221 222 236 193 157 209 205 193 201 212 176 182 190 208 219 221 178 208 175 179 192 193 158 144 119 88 74 115 138 137 128 119 117 117 116 124 122 121 128 124 133 232 232 252 256 256 275 292 283 287 289 287 288 287 286 282 279 275 279 283 284 288 286 283 283 286 289 287 289 290
188 148 207 206 210 64 127 234 254 252 258 152 152 57 240 156 234 204 201 259 203 199 177 204 206 221 180 210 211 213 227 223 192 196 193 191 187 176 164 159 160 161 160 153 148 151 139 134 138 142 144 136 132 135 148 122 164 220 238 249 259 267 282 277 287 287 285 286 287 285 283 281 280 282 280 282 282 284 288 290 291 287 284 287 289 287
205 110 242 252 183 163 185 204 202 225 155 171 144 191 211 205 202 175 146 235 216 176 188 197 220 212 201 202 213 228 233 231 239 215 205 214 209 191 177 176 166 152 144 135 140 148 136 132 139 143 152 146 140 144 151 143 168 217 247 261 276 284 282 290 286 286 286 285 284 284 283 280 279 276 278 279 283 282 284 290 290 289 288 287 288 294
206 195 177 187 213 148 198 215 249 229 185 202 188 206 208 219 207 180 174 183 192 235 200 196 224 220 205 212 221 214 223 222 221 205 188 205 203 189 183 185 177 173 168 159 155 144 138 148 157 152 163 159 150 176 163 172 158 239 257 266 276 279 282 281 285 288 284 282 282 280 279 280 277 279 275 274 275 284 288 288 292 294 289 288 291 291
273 188 199 75 257 232 251 190 231 220 188 209 225 215 215 237 225 167 190 224 236 226 180 197 220 219 212 207 211 239 226 226 221 223 215 208 193 197 172 141 132 135 136 134 137 146 139 131 135 145 167 208 173 189 181 199 181 247 255 278 286 283 279 281 286 285 281 281 280 281 285 288 284 276 272 273 271 270 277 283 291 290 292 292 288 290
260 163 131 184 259 93 273 153 190 219 191 193 210 232 243 252 236 190 211 223 235 236 227 224 220 216 213 197 202 220 231 228 227 228 215 200 191 183 176 175 170 165 162 162 159 141 138 141 148 165 172 198 210 180 215 227 247 234 266 278 277 278 279 282 278 279 282 284 284 286 285 283 289 290 286 282 280 275 276 280 276 280 286 287 290 286
302 165 156 223 223 215 237 203 221 227 214 208 199 219 243 248 249 235 218 225 229 238 224 225 215 239 231 217 215 219 233 233 221 228 212 204 197 187 181 174 163 154 162 147 146 146 140 146 158 170 176 195 199 181 213 241 247 256 262 267 270 269 277 277 274 277 283 288 288 288 285 284 287 291 297 292 290 292 290 280 274 275 280 287 286 284
186 92 233 178 195 252 290 273 243 258 271 272 264 233 228 231 235 250 246 240 243 246 248 248 205 222 219 229 227 220 231 242 223 218 211 204 191 181 184 174 171 161 148 147 154 151 158 157 162 175 173 197 186 190 238 254 258 260 262 267 270 269 273 273 275 279 285 286 289 286 287 287 292 295 296 297 289 275 275 285 287 279 269 261 254 255
89 248 203 91 202 228 208 227 189 231 259 253 247 241 234 230 230 243 258 264 250 245 247 251 253 230 229 237 230 221 223 237 231 205 207 198 190 181 162 156 154 150 151 147 139 143 142 155 159 166 174 207 190 211 233 258 266 264 261 264 266 262 263 275 285 288 288 287 287 291 295 297 297 296 295 293 295 297 290 282 291 292 294 293 291 290
210 231 174 177 203 239 232 228 220 219 241 245 253 250 215 216 205 220 237 244 249 240 239 244 258 272 258 244 229 218 227 231 232 184 188 186 191 174 165 157 155 156 154 149 134 143 149 165 157 152 176 209 197 219 242 261 264 271 270 258 260 252 258 272 285 286 289 293 292 297 303 301 300 299 296 294 297 298 300 306 302 302 300 298 297 295